Flag for Pakistan Weather past 2 weeks in Karachi, Pakistan

Now
95 °F

Sunny.


Feels Like: 91 °F
Forecast: 79 / 94 °F
Wind: 7 mph from Southwest

Location: Karachi Airport

Current Time: Oct 20, 2014 at 4:35:57 PM

Latest Report: Oct 20, 2014 at 3:55 PM


Visibility: 10 mi

Pressure: 29.86 "Hg

Humidity: 14%

Dew point: 39 °F

Location of KarachiLocation

Historic Weather in Karachi — Graph

°F

Karachi temperature yesterday

Maximum temperature yesterday: 95 °F (at 12:55 PM)
Minimum temperature yesterday: 70 °F (at 4:25 AM)
Average temperature yesterday: 82 °F

Past Weeks' High & Low Weather Summary

 TemperatureHumidityPressure
High104 °F (Oct 11, 1:55 PM)89% (Oct 9, 6:30 AM)30.04 "Hg (Oct 9, 6:30 AM)
Low70 °F (Oct 16, 4:25 AM)9% (Oct 11, 1:55 PM)29.62 "Hg (Oct 18, 12:25 PM)
Average85 °F47%29.86 "Hg
* Reported Oct 5 3:25 PM — Oct 20 3:25 PM, Karachi, Weather by CustomWeather, © 2014

Note: Actual official high and low records may vary slightly from our data, if they occured in-between our weather recording intervals... More about our weather records

Advertising

Karachi weather history for previous 24 hours

 ConditionsComfort  
Time TempWeatherWind HumidityBarometerVisibility
3:25 PM
Oct 20
97 °FClear.6 mph13%29.86 "Hg5 mi
2:55 PM97 °FClear.6 mph16%29.86 "Hg4 mi
2:25 PM97 °FClear.8 mph18%29.89 "Hg4 mi
1:55 PM97 °FClear.No wind17%29.89 "Hg4 mi
1:25 PM97 °FClear.No wind16%29.89 "Hg4 mi
12:55 PM95 °FHaze.3 mph18%29.92 "Hg4 mi
12:25 PM95 °FHaze.5 mph19%29.92 "Hg3 mi
11:55 AM93 °FExtremely hot.N/A30%29.95 "HgN/A
11:25 AM91 °FHaze.7 mph32%29.95 "Hg3 mi
10:55 AM90 °FHaze.3 mph38%29.95 "Hg3 mi
10:25 AM88 °FHaze.No wind46%29.98 "Hg3 mi
9:55 AM84 °FClear.No wind58%29.98 "Hg2 mi
7:55 AM73 °FFog.3 mph89%29.92 "Hg1 mi
7:25 AM72 °FFog.No wind83%29.92 "Hg1 mi
6:55 AM70 °FFog.3 mph88%29.92 "Hg1 mi
6:25 AM72 °FFog.5 mph83%29.92 "Hg2 mi
5:55 AM72 °FHaze.5 mph88%29.89 "Hg3 mi
4:55 AM72 °FClear.5 mph88%29.89 "Hg4 mi
4:25 AM73 °FClear.3 mph83%29.89 "Hg4 mi
3:55 AM75 °FClear.2 mph83%29.89 "Hg4 mi
3:25 AM77 °FClear.3 mph83%29.89 "Hg4 mi
2:55 AM77 °FClear.5 mph83%29.89 "Hg4 mi
1:55 AM77 °FClear.5 mph83%29.89 "Hg4 mi
1:25 AM79 °FClear.3 mph79%29.89 "Hg4 mi
12:55 AM79 °FClear.3 mph79%29.89 "Hg4 mi
12:25 AM79 °FClear.5 mph74%29.89 "Hg4 mi
11:55 PM
Oct 19
79 °FClear.3 mph74%29.89 "Hg4 mi
11:25 PM79 °FClear.6 mph74%29.89 "Hg4 mi
10:55 PM77 °FClear.5 mph69%29.89 "Hg4 mi
10:25 PM79 °FClear.5 mph65%29.89 "Hg4 mi
9:55 PM79 °FClear.7 mph65%29.89 "Hg4 mi
9:25 PM81 °FClear.7 mph62%29.89 "Hg4 mi
8:55 PM81 °FClear.5 mph54%29.89 "Hg4 mi
7:55 PM82 °FClear.6 mph51%29.89 "Hg4 mi
6:55 PM84 °FClear.7 mph40%29.86 "Hg4 mi
6:25 PM84 °FClear.9 mph35%29.86 "Hg4 mi
5:55 PM88 °FClear.12 mph29%29.83 "Hg4 mi
5:25 PM90 °FClear.12 mph27%29.83 "Hg4 mi
4:55 PM90 °FClear.13 mph31%29.83 "Hg4 mi
4:25 PM93 °FClear.15 mph26%29.83 "Hg4 mi
Weather by CustomWeather, © 2014

See weather overviewHow to use our weather pages